Satellite: DTUSAT-2 Catalog number: 40030 Epoch time: 14198.74351175 Element set: 75 Inclination: 097.9795 deg RA of node: 093.4139 deg Eccentricity: 0.0012017 Arg of perigee: 184.3334 deg Mean anomaly: 175.7781 deg Mean motion: 14.84901141 rev/day Decay rate: 1.613e-05 rev/day^2 Epoch rev: 412 Checksum: 285
Satellite: ANTELSAT Catalog number: 40034 Epoch time: 14198.66243214 Element set: 69 Inclination: 097.9784 deg RA of node: 092.7395 deg Eccentricity: 0.0062847 Arg of perigee: 108.9440 deg Mean anomaly: 251.8567 deg Mean motion: 14.71231772 rev/day Decay rate: 1.438e-05 rev/day^2 Epoch rev: 408 Checksum: 314
/EX SB KEPS @ AMSAT $ORB14198.W Orbital Elements 14198.WEATHER
HR AMSAT ORBITAL ELEMENTS FOR WEATHER SATELLITES FROM WA5QGD FORT WORTH,TX July 17, 2014 BID: ORB14198.W TO ALL RADIO AMATEURS BT
Satellite: MET-2/21 Catalog number: 22782 Epoch time: 14198.45410399 Element set: 111 Inclination: 082.5508 deg RA of node: 149.2921 deg Eccentricity: 0.0022560 Arg of perigee: 176.5275 deg Mean anomaly: 323.1772 deg Mean motion: 13.83740475 rev/day Decay rate: 5.7e-07 rev/day^2 Epoch rev: 5430 Checksum: 293
Satellite: OKEAN-4 Catalog number: 23317 Epoch time: 14198.13905350 Element set: 590 Inclination: 082.5371 deg RA of node: 039.8491 deg Eccentricity: 0.0020270 Arg of perigee: 004.3792 deg Mean anomaly: 148.2874 deg Mean motion: 14.85589007 rev/day Decay rate: 4.37e-06 rev/day^2 Epoch rev: 6755 Checksum: 307
Satellite: NOAA-14 Catalog number: 23455 Epoch time: 14198.43871053 Element set: 826 Inclination: 098.7778 deg RA of node: 281.3376 deg Eccentricity: 0.0008503 Arg of perigee: 317.2925 deg Mean anomaly: 150.4437 deg Mean motion: 14.13978886 rev/day Decay rate: 4.4e-07 rev/day^2 Epoch rev: 822 Checksum: 325
Satellite: NOAA-15 Catalog number: 25338 Epoch time: 14198.45634891 Element set: 261 Inclination: 098.7536 deg RA of node: 192.2579 deg Eccentricity: 0.0011575 Arg of perigee: 064.8003 deg Mean anomaly: 088.1798 deg Mean motion: 14.25444831 rev/day Decay rate: 1.03e-06 rev/day^2 Epoch rev: 84115 Checksum: 322
Satellite: RESURS Catalog number: 25394 Epoch time: 14198.44715688 Element set: 705 Inclination: 098.4147 deg RA of node: 161.5483 deg Eccentricity: 0.0002146 Arg of perigee: 139.8789 deg Mean anomaly: 012.6287 deg Mean motion: 14.24396519 rev/day Decay rate: -4.2e-07 rev/day^2 Epoch rev: 83262 Checksum: 328
Satellite: FENGYUN1 Catalog number: 25730 Epoch time: 14198.46217292 Element set: 194 Inclination: 098.9137 deg RA of node: 159.3699 deg Eccentricity: 0.0026062 Arg of perigee: 028.9394 deg Mean anomaly: 084.6083 deg Mean motion: 14.11968536 rev/day Decay rate: 6.10e-06 rev/day^2 Epoch rev: 78179 Checksum: 339
Satellite: OKEAN-0 Catalog number: 25860 Epoch time: 14198.44118228 Element set: 304 Inclination: 098.0445 deg RA of node: 162.1311 deg Eccentricity: 0.0001042 Arg of perigee: 086.9550 deg Mean anomaly: 069.6498 deg Mean motion: 14.75316490 rev/day Decay rate: 2.66e-06 rev/day^2 Epoch rev: 80661 Checksum: 293
Satellite: NOAA-16 Catalog number: 26536 Epoch time: 14198.38768666 Element set: 759 Inclination: 098.9889 deg RA of node: 258.8801 deg Eccentricity: 0.0011591 Arg of perigee: 100.0860 deg Mean anomaly: 260.1620 deg Mean motion: 14.13030585 rev/day Decay rate: -1.14e-06 rev/day^2 Epoch rev: 71238 Checksum: 323
Satellite: NOAA-17 Catalog number: 27453 Epoch time: 14198.46130951 Element set: 655 Inclination: 098.3149 deg RA of node: 196.5813 deg Eccentricity: 0.0012955 Arg of perigee: 087.5143 deg Mean anomaly: 272.7520 deg Mean motion: 14.24757226 rev/day Decay rate: 4.1e-07 rev/day^2 Epoch rev: 62699 Checksum: 327
Satellite: NOAA-18 Catalog number: 28654 Epoch time: 14198.50883458 Element set: 160 Inclination: 099.1498 deg RA of node: 178.6204 deg Eccentricity: 0.0014547 Arg of perigee: 174.9177 deg Mean anomaly: 292.6450 deg Mean motion: 14.12038280 rev/day Decay rate: 2.10e-06 rev/day^2 Epoch rev: 47184 Checksum: 324
Satellite: NOAA-19 Catalog number: 33591 Epoch time: 14198.47372184 Element set: 307 Inclination: 098.9453 deg RA of node: 143.4228 deg Eccentricity: 0.0014672 Arg of perigee: 038.4684 deg Mean anomaly: 069.1964 deg Mean motion: 14.11736407 rev/day Decay rate: 1.93e-06 rev/day^2 Epoch rev: 28026 Checksum: 325
/EX SB KEPS @ AMSAT $ORB14198.M Orbital Elements 14198.MISC
HR AMSAT ORBITAL ELEMENTS FOR MANNED AND MISCELLANEOUS SATELLITES FROM WA5QGD FORT WORTH,TX July 17, 2014 BID: ORB14198.M TO ALL RADIO AMATEURS BT
Satellite: HUBBLE Catalog number: 20580 Epoch time: 14198.15364390 Element set: 56 Inclination: 028.4691 deg RA of node: 200.1238 deg Eccentricity: 0.0002773 Arg of perigee: 246.4635 deg Mean anomaly: 181.7850 deg Mean motion: 15.05545153 rev/day Decay rate: 9.30e-06 rev/day^2 Epoch rev: 12923 Checksum: 277
Satellite: ISS Catalog number: 25544 Epoch time: 14198.91739764 Element set: 719 Inclination: 051.6479 deg RA of node: 307.2495 deg Eccentricity: 0.0005352 Arg of perigee: 263.2984 deg Mean anomaly: 201.0849 deg Mean motion: 15.50122865 rev/day Decay rate: 9.043e-05 rev/day^2 Epoch rev: 89609 Checksum: 332
Satellite: CO-58 Catalog number: 28895 Epoch time: 14197.77820934 Element set: 820 Inclination: 097.8339 deg RA of node: 038.1078 deg Eccentricity: 0.0015931 Arg of perigee: 276.9896 deg Mean anomaly: 082.9494 deg Mean motion: 14.61937363 rev/day Decay rate: 2.89e-06 rev/day^2 Epoch rev: 46457 Checksum: 383
Satellite: FALCON Catalog number: 30776 Epoch time: 14198.66715590 Element set: 913 Inclination: 035.4292 deg RA of node: 284.9946 deg Eccentricity: 0.0002235 Arg of perigee: 214.3236 deg Mean anomaly: 271.2776 deg Mean motion: 15.16660084 rev/day Decay rate: 2.651e-05 rev/day^2 Epoch rev: 40536 Checksum: 307
Satellite: MAST Catalog number: 31126 Epoch time: 14198.18060451 Element set: 94 Inclination: 097.9160 deg RA of node: 177.5147 deg Eccentricity: 0.0090697 Arg of perigee: 260.4752 deg Mean anomaly: 160.4607 deg Mean motion: 14.55321538 rev/day Decay rate: 1.67e-06 rev/day^2 Epoch rev: 38475 Checksum: 306
Satellite: CAPE1 Catalog number: 31130 Epoch time: 14198.41164810 Element set: 101 Inclination: 097.9368 deg RA of node: 174.4242 deg Eccentricity: 0.0097384 Arg of perigee: 278.1584 deg Mean anomaly: 080.8577 deg Mean motion: 14.54501952 rev/day Decay rate: 3.01e-06 rev/day^2 Epoch rev: 38420 Checksum: 292
Satellite: COMPASS Catalog number: 32787 Epoch time: 14198.22566011 Element set: 986 Inclination: 097.7000 deg RA of node: 250.8961 deg Eccentricity: 0.0015261 Arg of perigee: 085.0928 deg Mean anomaly: 275.2031 deg Mean motion: 14.88058828 rev/day Decay rate: 9.99e-06 rev/day^2 Epoch rev: 33665 Checksum: 328
Satellite: AAUSAT2 Catalog number: 32788 Epoch time: 14198.75308100 Element set: 972 Inclination: 097.7010 deg RA of node: 252.4327 deg Eccentricity: 0.0014825 Arg of perigee: 081.4431 deg Mean anomaly: 278.8466 deg Mean motion: 14.88781685 rev/day Decay rate: 1.411e-05 rev/day^2 Epoch rev: 33679 Checksum: 325
Satellite: DO-64 Catalog number: 32789 Epoch time: 14198.22595317 Element set: 12 Inclination: 097.7187 deg RA of node: 258.7126 deg Eccentricity: 0.0013083 Arg of perigee: 069.6154 deg Mean anomaly: 326.4150 deg Mean motion: 14.93697938 rev/day Decay rate: 2.328e-05 rev/day^2 Epoch rev: 33698 Checksum: 348
Satellite: CO-66 Catalog number: 32791 Epoch time: 14198.20940205 Element set: 968 Inclination: 097.6995 deg RA of node: 249.5829 deg Eccentricity: 0.0015905 Arg of perigee: 088.3337 deg Mean anomaly: 271.9701 deg Mean motion: 14.86691801 rev/day Decay rate: 7.41e-06 rev/day^2 Epoch rev: 33651 Checksum: 349
Satellite: RS-30 Catalog number: 32953 Epoch time: 14198.73512988 Element set: 107 Inclination: 082.4990 deg RA of node: 182.2138 deg Eccentricity: 0.0020391 Arg of perigee: 089.0224 deg Mean anomaly: 271.3197 deg Mean motion: 12.43049242 rev/day Decay rate: 1.0e-07 rev/day^2 Epoch rev: 27905 Checksum: 292
Satellite: METEOR-M Catalog number: 35865 Epoch time: 14198.76474628 Element set: 722 Inclination: 098.5478 deg RA of node: 245.2484 deg Eccentricity: 0.0002969 Arg of perigee: 024.0361 deg Mean anomaly: 336.0945 deg Mean motion: 14.21926185 rev/day Decay rate: 2.1e-07 rev/day^2 Epoch rev: 25068 Checksum: 321
Satellite: RS-38 Catalog number: 35869 Epoch time: 14198.75103317 Element set: 641 Inclination: 098.5411 deg RA of node: 245.0202 deg Eccentricity: 0.0004556 Arg of perigee: 021.8542 deg Mean anomaly: 116.5842 deg Mean motion: 14.22217818 rev/day Decay rate: -1.0e-07 rev/day^2 Epoch rev: 25071 Checksum: 279
Satellite: JUGNU Catalog number: 37839 Epoch time: 14197.08715686 Element set: 656 Inclination: 019.9625 deg RA of node: 079.7796 deg Eccentricity: 0.0018979 Arg of perigee: 302.6457 deg Mean anomaly: 210.4333 deg Mean motion: 14.12320126 rev/day Decay rate: 3.45e-06 rev/day^2 Epoch rev: 14264 Checksum: 324
Satellite: SRMSAT Catalog number: 37841 Epoch time: 14197.19150736 Element set: 660 Inclination: 019.9729 deg RA of node: 099.0501 deg Eccentricity: 0.0011768 Arg of perigee: 242.1045 deg Mean anomaly: 255.3402 deg Mean motion: 14.10360214 rev/day Decay rate: 3.20e-06 rev/day^2 Epoch rev: 14245 Checksum: 264
Satellite: RAX-2 Catalog number: 37853 Epoch time: 14198.09388329 Element set: 861 Inclination: 101.7118 deg RA of node: 242.0062 deg Eccentricity: 0.0215374 Arg of perigee: 330.2802 deg Mean anomaly: 055.5038 deg Mean motion: 14.89784567 rev/day Decay rate: 1.914e-05 rev/day^2 Epoch rev: 14711 Checksum: 306
Satellite: AUBIESAT Catalog number: 37854 Epoch time: 14197.12167247 Element set: 841 Inclination: 101.7148 deg RA of node: 242.5313 deg Eccentricity: 0.0213279 Arg of perigee: 330.0818 deg Mean anomaly: 094.7675 deg Mean motion: 14.91126153 rev/day Decay rate: 3.108e-05 rev/day^2 Epoch rev: 14702 Checksum: 286
